Location: Landeleau
(48.2273°N, 3.7285°W)
Time: 22:22:41
(UTC+00:00)

Terra - Pass Details

Date: 30 March 2020
Orbit: 701 x 703 km, 98.2° (Epoch: 24 May)

Event Time Altitude Azimuth Distance (km) Brightness Sun altitude
Exits shadow 21:32:11 38° 39° (NE) 1,069 2.7 -26.2°
Drops below altitude 10° 21:35:47 10° 358° (N) 2,183 4.9 -26.6°
Sets 21:38:08 0° 352° (N) 3,107 5.9 -26.9°
